Home > Weather > Lansing > Past weeks

Flag for USA Past Weather in Lansing, Michigan, USA — Yesterday and Last 2 Weeks

Now
68 °F

Clear.


Feels Like: 68 °F
Forecast: 58 / 80 °F
Wind: 5 mph from East

Location: Capital City Airport

Current Time: May 31, 2016 at 11:36:04 PM

Latest Report: May 31, 2016 at 10:53 PM


Visibility: 10 mi

Pressure: 30.01 "Hg

Humidity: 59%

Dew Point: 53 °F

Location of LansingLocation

Past Weather in Lansing — Graph

°F

Lansing Temperature Yesterday

Maximum temperature yesterday: 83 °F (at 4:53 PM)
Minimum temperature yesterday: 62 °F (at 4:53 AM)
Average temperature yesterday: 72 °F

High & Low Weather Summary for the Past Weeks

 TemperatureHumidityPressure
High85 °F (May 28, 5:53 PM)97% (May 26, 4:53 AM)30.28 "Hg (May 26, 4:53 AM)
Low39 °F (May 18, 6:53 AM)24% (May 23, 4:53 PM)29.84 "Hg (May 26, 7:53 PM)
Average66 °F57%30.05 "Hg
* Reported May 16 9:53 PM — May 31 9:53 PM, Lansing, Weather by CustomWeather, © 2016

Note: Actual official high and low records may vary slightly from our data, if they occured in-between our weather recording intervals... More about our weather records

Advertising

Lansing Weather History for the Previous 24 Hours

Scroll right to see more
 ConditionsComfort  
Time TempWeatherWind HumidityBarometerVisibility
9:53 PM
Tue, May 31
70 °FSunny.6 mph55%30.01 "Hg10 mi
8:53 PM74 °FSunny.7 mph48%30.00 "Hg10 mi
7:53 PM78 °FSunny.8 mph42%30.01 "Hg10 mi
6:53 PM78 °FSunny.7 mph42%30.01 "Hg10 mi
5:53 PM80 °FSunny.8 mph36%30.01 "Hg10 mi
4:53 PM82 °FSunny.10 mph33%30.02 "Hg10 mi
3:53 PM81 °FSunny.12 mph35%30.03 "Hg10 mi
2:53 PM80 °FSunny.7 mph35%30.03 "Hg10 mi
1:53 PM81 °FSunny.6 mph34%30.04 "Hg10 mi
12:53 PM79 °FSunny.6 mph38%30.04 "Hg10 mi
11:53 AM78 °FSunny.7 mph40%30.05 "Hg10 mi
10:53 AM76 °FSunny.7 mph40%30.04 "Hg10 mi
9:53 AM73 °FSunny.5 mph46%30.06 "Hg10 mi
8:53 AM69 °FSunny.6 mph59%30.04 "Hg10 mi
7:53 AM61 °FSunny.No wind78%30.04 "Hg10 mi
6:53 AM54 °FClear.No wind97%30.04 "Hg10 mi
5:53 AM53 °FClear.No wind93%30.02 "Hg10 mi
4:53 AM56 °FClear.No wind87%30.01 "Hg10 mi
3:53 AM56 °FClear.No wind90%30.01 "Hg10 mi
2:53 AM57 °FClear.No wind87%30.00 "Hg10 mi
1:53 AM59 °FClear.No wind87%30.00 "Hg10 mi
12:53 AM62 °FClear.No wind78%30.00 "Hg10 mi
11:53 PM
Mon, May 30
64 °FClear.3 mph73%29.99 "Hg10 mi
Weather by CustomWeather, © 2016

See weather overviewHow to use our weather pages